Location: Fort Wadsworth
(40.6090°N, 74.0626°W)
Time: 23:09:44
(UTC+00:00)

Daily predictions for brighter satellites

Satellite Brightness Start Highest point End
(mag) Time Altitude Azimuth Time Altitude Azimuth Time Altitude Azimuth
Nadezhda 3 Rocket 4.3 22:16:36 10° N 22:22:36 44° ENE 22:28:35 10° SSE
COSMOS 2428 2.8 22:18:02 10° NNW 22:23:42 59° ENE 22:29:21 10° SE
SJ 16-02 4.0 22:22:52 10° W 22:25:41 16° WNW 22:28:31 10° NNW
Starlink K 4.5 22:23:54 10° W 22:26:31 26° NNW 22:29:09 10° NNE
NOSS 0 Rocket 4.4 22:21:58 10° NNW 22:27:49 40° ENE 22:33:35 10° SE
Starlink M 4.5 22:25:22 10° W 22:27:58 26° NNW 22:30:34 10° NNE
ERBS 3.5 22:25:13 10° S 22:28:02 26° SE 22:30:52 10° ENE
Cosmos 1048 Rocket 4.0 22:25:24 10° NNW 22:30:30 59° ENE 22:35:31 10° SSE
Cosmos 372 Rocket 4.5 22:26:28 10° SSW 22:31:31 62° WNW 22:36:40 10° NNE
Timation 2 Rocket 4.0 22:25:58 10° SSW 22:32:01 89° WNW 22:38:20 10° NNE
Shenzhou-11 Module 4.2 22:33:11 10° S 22:34:30 13° SE 22:35:48 10° ESE
Cosmos 2341 Rocket 4.5 22:35:27 10° SSE 22:41:19 41° E 22:47:12 10° NNE
Cosmos 468 4.5 22:37:29 10° NNW 22:42:45 87° ENE 22:47:58 10° SSE
SKYMED 2 3.9 22:39:40 10° NNE 22:43:51 46° E 22:48:01 10° S
Cosmos 1607 4.4 22:39:49 10° SW 22:45:50 59° NW 22:51:57 10° NNE
SMAP 4.0 22:44:57 10° S 22:49:29 53° W 22:54:04 10° NNW
Cosmos 1300 2.6 22:48:25 10° N 22:52:15 86° E 22:56:03 10° S
USA 116 4.3 22:53:28 13° NE 22:55:40 24° E 22:58:15 10° SSE
Cosmos 1812 Rocket 3.5 22:51:15 10° N 22:55:43 71° E 23:00:10 10° SSE
Meteor 2-17 Rocket 4.4 22:51:12 10° S 22:57:17 67° E 23:03:23 10° NNE
ADEOS Rocket 4.2 22:54:19 10° NE 22:59:51 27° E 23:05:46 10° SSE
Cosmos 1242 Rocket 3.9 22:56:46 10° SSW 23:00:04 40° WNW 23:03:25 10° N
YAOGAN 1 3.0 22:57:13 10° SE 23:01:13 38° ENE 23:05:14 10° N
Cosmos 1340 Rocket 2.7 22:59:44 10° N 23:03:43 82° E 23:07:41 10° S
Ariane Rocket 4.2 23:00:25 10° ESE 23:03:55 19° ENE 23:07:27 10° NNE
Cosmos 724 4.3 22:59:10 10° SSW 23:05:08 72° ESE 23:10:58 10° NE
Cosmos 1626 3.3 23:01:44 10° SSW 23:05:17 45° W 23:08:52 10° N
Cosmos 494 Rocket 3.9 23:00:41 10° NNW 23:05:48 69° ENE 23:10:54 10° SSE
YAOGAN 6 2.7 23:03:00 10° S 23:06:41 83° WSW 23:10:23 10° NNW
Cosmos 1455 3.2 23:05:01 10° NNE 23:08:10 24° ENE 23:11:17 10° SE
Cosmos-2242 3.4 23:07:06 10° N 23:11:09 38° ENE 23:15:08 10° SSE
Cosmos 2237 Rocket 2.2 23:05:51 10° NNW 23:11:23 55° ENE 23:16:52 10° SE
Cosmos 2333 Rocket 3.2 23:06:56 10° NNW 23:12:27 51° WSW 23:17:53 10° S
Cosmos 2218 Rocket 4.3 23:08:16 10° SSE 23:14:11 44° E 23:20:11 10° NNE
BREEZE-M DEB (TANK) 2.2 23:14:33 10° WSW 23:16:56 59° NNW 23:17:43 33° NE
Meteor 1-21 Rocket 4.1 23:15:28 10° S 23:21:01 78° E 23:26:41 10° NNE
CSL-04 Rocket 3.6 23:17:18 10° SSE 23:22:42 64° ENE 23:28:11 10° N
Cosmos 1241 Rocket 4.4 23:16:35 10° NNW 23:22:49 78° ENE 23:29:05 10° SE
Cosmos 1939 Rocket 3.0 23:19:57 10° SSE 23:23:40 47° ENE 23:27:28 10° N
USA 32 4.2 23:24:03 10° S 23:29:16 77° W 23:34:31 10° N
Cosmos 1953 Rocket 3.5 23:27:15 10° S 23:31:39 62° E 23:35:51 11° NNE
COSMO-SKYMED 1 3.5 23:27:44 10° N 23:31:56 50° WNW 23:36:08 10° SSW
SL-16 R/B 2.9 23:27:09 10° N 23:32:11 31° ENE 23:33:09 30° ENE
DMSP B5D1-3 4.4 23:28:25 10° NNE 23:33:29 63° ESE 23:38:31 10° S
Cosmos 2219 3.5 23:28:49 10° SSW 23:34:22 65° WNW 23:40:00 10° NNE
DELTA 2 R/B (1) 3.6 23:28:55 10° WSW 23:34:29 74° S 23:37:08 32° E
Cosmos 1758 Rocket 3.9 23:32:37 10° SSW 23:36:54 65° W 23:41:12 10° N
Cosmos 2082 3.8 23:32:32 10° S 23:37:55 51° ESE 23:40:30 29° NE
ISS -3.8 23:35:09 10° SW 23:38:28 64° SE 23:38:39 62° ESE
Cosmos 1959 Rocket 4.4 23:34:17 10° S 23:40:26 70° E 23:46:32 10° NNE
Cosmos 1703 3.1 23:44:04 10° S 23:47:59 71° E 23:48:38 57° NE
Cosmos 2297 Rocket 2.4 23:43:43 10° SSW 23:49:20 71° WNW 23:54:00 16° NNE
NOSS 2-1 (D) 4.5 23:44:22 10° NNW 23:49:57 66° NE 23:56:11 16° SE
Cosmos 2366 rocket 3.9 23:44:34 10° S 23:50:45 81° E 23:57:02 10° N
CZ-4 R/B 2.7 23:47:46 10° S 23:51:32 40° W 23:55:25 10° NNW
Cosmos 1980 4.1 23:47:50 10° NNW 23:53:27 64° WSW 23:59:03 10° S
